VIV462 MMAA-MMMX

Flight info

Callsign VIV462
Flight time 0h 56m
Altitude 32000
Route ALNUS1B ALNUS UT117 ESPOS ESPOS4B
Aircraft A321/M-SDE3FGHIRWY/LB1

Departure

Time 2026-05-04 00:33
Airport General Juan N. Álvarez International Airport (MMAA)

Arrival

Time 2026-05-04 01:29
Airport Mexico City Benito Juárez International Airport (MMMX)
Time Latitude Longitude Altitude Speed Heading
2026-05-04 00:05 16.76144 -99.75556 17 ft 0 kts 19°
2026-05-04 00:18 16.76142 -99.75556 18 ft 3 kts 19°
2026-05-04 00:19 16.76118 -99.75565 18 ft 4 kts 20°
2026-05-04 00:19 16.76096 -99.75574 20 ft 4 kts 19°
2026-05-04 00:19 16.76073 -99.75583 21 ft 3 kts 26°
2026-05-04 00:19 16.76058 -99.75592 18 ft 2 kts 52°
2026-05-04 00:20 16.76052 -99.75602 18 ft 2 kts 93°
2026-05-04 00:20 16.76053 -99.75613 18 ft 2 kts 105°
2026-05-04 00:20 16.76055 -99.75620 17 ft 0 kts 108°
2026-05-04 00:23 16.76055 -99.75619 17 ft 1 kts 108°
2026-05-04 00:24 16.76045 -99.75588 19 ft 9 kts 108°
2026-05-04 00:24 16.76025 -99.75525 17 ft 10 kts 107°
2026-05-04 00:24 16.76004 -99.75456 17 ft 10 kts 108°
2026-05-04 00:24 16.75981 -99.75384 17 ft 10 kts 110°
2026-05-04 00:25 16.75926 -99.75350 17 ft 10 kts 161°
2026-05-04 00:25 16.75884 -99.75298 17 ft 10 kts 109°
2026-05-04 00:25 16.75867 -99.75243 17 ft 0 kts 108°
2026-05-04 00:26 16.75866 -99.75242 17 ft 1 kts 108°
2026-05-04 00:26 16.75853 -99.75199 19 ft 13 kts 108°
2026-05-04 00:26 16.75821 -99.75098 18 ft 15 kts 108°
2026-05-04 00:26 16.75787 -99.74989 19 ft 16 kts 108°
2026-05-04 00:27 16.75750 -99.74872 17 ft 17 kts 108°
2026-05-04 00:27 16.75712 -99.74751 18 ft 18 kts 108°
2026-05-04 00:27 16.75673 -99.74627 17 ft 18 kts 108°
2026-05-04 00:27 16.75633 -99.74499 17 ft 19 kts 108°
2026-05-04 00:28 16.75592 -99.74368 18 ft 19 kts 108°
2026-05-04 00:28 16.75551 -99.74236 17 ft 20 kts 108°
2026-05-04 00:28 16.75522 -99.74145 17 ft 20 kts 108°
2026-05-04 00:28 16.75479 -99.74005 17 ft 20 kts 108°
2026-05-04 00:29 16.75419 -99.73816 17 ft 21 kts 108°
2026-05-04 00:29 16.75373 -99.73669 17 ft 21 kts 108°
2026-05-04 00:29 16.75342 -99.73569 17 ft 22 kts 108°
2026-05-04 00:29 16.75294 -99.73418 18 ft 22 kts 108°
2026-05-04 00:30 16.75214 -99.73331 18 ft 16 kts 187°
2026-05-04 00:30 16.75178 -99.73341 18 ft 0 kts 198°
2026-05-04 00:31 16.75172 -99.73343 18 ft 2 kts 198°
2026-05-04 00:31 16.75146 -99.73352 19 ft 7 kts 198°
2026-05-04 00:31 16.75097 -99.73392 19 ft 10 kts 263°
2026-05-04 00:31 16.75113 -99.73470 20 ft 12 kts 287°
2026-05-04 00:32 16.75171 -99.73658 18 ft 58 kts 288°
2026-05-04 00:32 16.75361 -99.74267 19 ft 118 kts 288°
2026-05-04 00:32 16.75671 -99.75254 21 ft 165 kts 288°
2026-05-04 00:32 16.76031 -99.76427 496 ft 169 kts 285°
2026-05-04 00:33 16.76371 -99.77621 992 ft 176 kts 285°
2026-05-04 00:33 16.77148 -99.80118 2094 ft 188 kts 286°
2026-05-04 00:33 16.77581 -99.81478 2234 ft 207 kts 287°
2026-05-04 00:34 16.78055 -99.82975 2353 ft 226 kts 287°
2026-05-04 00:34 16.78572 -99.84609 2462 ft 249 kts 287°
2026-05-04 00:34 16.79156 -99.86373 2853 ft 262 kts 292°
2026-05-04 00:34 16.80305 -99.87876 3398 ft 272 kts 325°
2026-05-04 00:35 16.82041 -99.88614 3975 ft 277 kts 349°
2026-05-04 00:35 16.83972 -99.88632 4573 ft 281 kts
2026-05-04 00:35 16.85924 -99.88359 5171 ft 284 kts
2026-05-04 00:35 16.87893 -99.88064 5818 ft 287 kts
2026-05-04 00:36 16.89877 -99.87758 6440 ft 290 kts 10°
2026-05-04 00:36 16.91877 -99.87447 7063 ft 292 kts 10°
2026-05-04 00:36 16.93894 -99.87136 7707 ft 293 kts 11°
2026-05-04 00:36 16.95919 -99.86827 8354 ft 295 kts 10°
2026-05-04 00:37 16.97961 -99.86517 8951 ft 296 kts 10°
2026-05-04 00:37 17.00009 -99.86207 9560 ft 299 kts 10°
2026-05-04 00:37 17.02077 -99.85894 10136 ft 301 kts 10°
2026-05-04 00:37 17.04206 -99.85571 10348 ft 319 kts 10°
2026-05-04 00:38 17.06443 -99.85230 10469 ft 338 kts 10°
2026-05-04 00:38 17.08829 -99.84867 10607 ft 355 kts 10°
2026-05-04 00:38 17.11329 -99.84488 10743 ft 370 kts 10°
2026-05-04 00:38 17.13907 -99.84097 11120 ft 377 kts
2026-05-04 00:39 17.16509 -99.83703 11634 ft 379 kts
2026-05-04 00:39 17.19124 -99.83308 12187 ft 381 kts 10°
2026-05-04 00:39 17.21752 -99.82910 12739 ft 382 kts
2026-05-04 00:39 17.24389 -99.82511 13262 ft 384 kts
2026-05-04 00:40 17.27041 -99.82109 13794 ft 386 kts
2026-05-04 00:40 17.29704 -99.81707 14270 ft 387 kts
2026-05-04 00:40 17.32376 -99.81305 14741 ft 390 kts
2026-05-04 00:40 17.35069 -99.80899 15203 ft 392 kts
2026-05-04 00:41 17.37781 -99.80487 15667 ft 394 kts
2026-05-04 00:41 17.40509 -99.80072 16131 ft 397 kts
2026-05-04 00:41 17.43246 -99.79654 16597 ft 399 kts
2026-05-04 00:41 17.46007 -99.79233 17068 ft 402 kts
2026-05-04 00:42 17.48779 -99.78808 17524 ft 404 kts
2026-05-04 00:42 17.51570 -99.78381 17989 ft 406 kts
2026-05-04 00:42 17.54381 -99.77953 18413 ft 409 kts
2026-05-04 00:42 17.57200 -99.77524 18782 ft 411 kts
2026-05-04 00:43 17.57934 -99.77412 18974 ft 390 kts
2026-05-04 00:43 17.60043 -99.77090 22485 ft 274 kts
2026-05-04 00:44 17.62012 -99.76871 22955 ft 288 kts 360°
2026-05-04 00:44 17.64086 -99.76972 22590 ft 314 kts 357°
2026-05-04 00:44 17.66247 -99.77128 23225 ft 299 kts 356°
2026-05-04 00:44 17.68405 -99.77289 23088 ft 318 kts 357°
2026-05-04 00:45 17.70581 -99.77410 23557 ft 314 kts 358°
2026-05-04 00:45 17.72794 -99.77513 23674 ft 322 kts 359°
2026-05-04 00:45 17.75065 -99.77576 23782 ft 330 kts 360°
2026-05-04 00:45 17.77395 -99.77616 23872 ft 339 kts 360°
2026-05-04 00:46 17.79754 -99.77663 23977 ft 347 kts 359°
2026-05-04 00:46 17.82201 -99.77759 24080 ft 356 kts 358°
2026-05-04 00:46 17.84711 -99.77889 24175 ft 364 kts 357°
2026-05-04 00:46 17.87275 -99.78038 24277 ft 373 kts 357°
2026-05-04 00:47 17.89896 -99.78195 24383 ft 382 kts 357°
2026-05-04 00:47 17.92579 -99.78352 24484 ft 390 kts 357°
2026-05-04 00:47 17.95322 -99.78505 24593 ft 398 kts 357°
2026-05-04 00:47 17.98118 -99.78656 24700 ft 405 kts 357°
2026-05-04 00:48 18.00964 -99.78808 24738 ft 414 kts 357°
2026-05-04 00:48 18.03875 -99.78963 24733 ft 423 kts 357°
2026-05-04 00:48 18.06851 -99.79121 24759 ft 431 kts 357°
2026-05-04 00:48 18.09821 -99.79277 24871 ft 436 kts 357°
2026-05-04 00:49 18.12874 -99.79439 24984 ft 441 kts 357°
2026-05-04 00:49 18.15956 -99.79605 25167 ft 444 kts 357°
2026-05-04 00:49 18.19051 -99.79770 25399 ft 446 kts 357°
2026-05-04 00:49 18.22156 -99.79936 25639 ft 448 kts 357°
2026-05-04 00:50 18.25266 -99.80102 25869 ft 449 kts 357°
2026-05-04 00:50 18.28394 -99.80271 26105 ft 451 kts 357°
2026-05-04 00:50 18.31531 -99.80441 26346 ft 452 kts 357°
2026-05-04 00:50 18.34678 -99.80612 26595 ft 453 kts 357°
2026-05-04 00:51 18.37833 -99.80781 26843 ft 455 kts 356°
2026-05-04 00:51 18.40996 -99.80952 27086 ft 456 kts 356°
2026-05-04 00:51 18.44175 -99.81124 27323 ft 458 kts 356°
2026-05-04 00:51 18.47361 -99.81297 27575 ft 458 kts 356°
2026-05-04 00:52 18.50550 -99.81471 27820 ft 459 kts 356°
2026-05-04 00:52 18.53735 -99.81644 27901 ft 458 kts 356°
2026-05-04 00:52 18.56921 -99.81816 27912 ft 457 kts 356°
2026-05-04 00:52 18.60094 -99.81987 27921 ft 457 kts 356°
2026-05-04 00:53 18.63277 -99.82155 27931 ft 457 kts 357°
2026-05-04 00:53 18.66454 -99.81981 27934 ft 458 kts
2026-05-04 00:53 18.69485 -99.81075 27945 ft 461 kts 21°
2026-05-04 00:53 18.72316 -99.79501 27688 ft 458 kts 32°
2026-05-04 00:54 18.74733 -99.77301 26942 ft 462 kts 46°
2026-05-04 00:54 18.76577 -99.74519 26292 ft 464 kts 59°
2026-05-04 00:54 18.77912 -99.71426 25937 ft 461 kts 64°
2026-05-04 00:54 18.79200 -99.68313 25947 ft 465 kts 64°
2026-05-04 00:55 18.80506 -99.65189 25954 ft 467 kts 63°
2026-05-04 00:55 18.81827 -99.62057 25959 ft 467 kts 63°
2026-05-04 00:55 18.83156 -99.58926 25981 ft 468 kts 63°
2026-05-04 00:55 18.84489 -99.55788 25983 ft 468 kts 63°
2026-05-04 00:56 18.85819 -99.52657 25999 ft 468 kts 63°
2026-05-04 00:56 18.87149 -99.49522 25997 ft 468 kts 63°
2026-05-04 00:56 18.88481 -99.46382 26004 ft 468 kts 63°
2026-05-04 00:56 18.89812 -99.43241 26023 ft 469 kts 64°
2026-05-04 00:57 18.91137 -99.40101 26027 ft 468 kts 64°
2026-05-04 00:57 18.92461 -99.36957 26017 ft 468 kts 64°
2026-05-04 00:57 18.93774 -99.33810 26024 ft 469 kts 64°
2026-05-04 00:57 18.95061 -99.30684 26027 ft 470 kts 64°
2026-05-04 00:58 18.96353 -99.27513 26020 ft 470 kts 64°
2026-05-04 00:58 18.97640 -99.24337 26015 ft 471 kts 64°
2026-05-04 00:58 18.98926 -99.21157 26024 ft 470 kts 65°
2026-05-04 00:58 19.00206 -99.17982 26019 ft 471 kts 64°
2026-05-04 00:59 19.01489 -99.14796 26003 ft 470 kts 64°
2026-05-04 00:59 19.02768 -99.11621 26008 ft 469 kts 65°
2026-05-04 00:59 19.04034 -99.08486 25304 ft 457 kts 64°
2026-05-04 00:59 19.05032 -99.05325 24139 ft 452 kts 77°
2026-05-04 01:00 19.05600 -99.02090 22867 ft 442 kts 72°
2026-05-04 01:00 19.06474 -98.99012 21570 ft 434 kts 76°
2026-05-04 01:00 19.06715 -98.95861 20395 ft 428 kts 94°
2026-05-04 01:00 19.06020 -98.92841 19441 ft 420 kts 115°
2026-05-04 01:01 19.04472 -98.90407 19282 ft 391 kts 134°
2026-05-04 01:01 19.02385 -98.88752 19145 ft 363 kts 151°
2026-05-04 01:01 19.00197 -98.87564 18761 ft 344 kts 153°
2026-05-04 01:01 18.98101 -98.86487 18600 ft 329 kts 153°
2026-05-04 01:02 18.96047 -98.85512 18477 ft 319 kts 164°
2026-05-04 01:02 18.93890 -98.85271 18311 ft 309 kts 188°
2026-05-04 01:02 18.91884 -98.85963 17984 ft 302 kts 214°
2026-05-04 01:02 18.90412 -98.87448 17776 ft 287 kts 240°
2026-05-04 01:03 18.89762 -98.89356 17621 ft 270 kts 267°
2026-05-04 01:03 18.89698 -98.91315 17311 ft 265 kts 272°
2026-05-04 01:03 18.89739 -98.93253 16969 ft 263 kts 273°
2026-05-04 01:03 18.89892 -98.95164 16608 ft 260 kts 288°
2026-05-04 01:04 18.90752 -98.96788 16256 ft 254 kts 317°
2026-05-04 01:04 18.92242 -98.97730 15899 ft 251 kts 347°
2026-05-04 01:04 18.93975 -98.97877 15542 ft 251 kts
2026-05-04 01:04 18.95727 -98.97791 15162 ft 252 kts
2026-05-04 01:05 18.97484 -98.97675 14805 ft 253 kts
2026-05-04 01:05 18.99237 -98.97555 14455 ft 253 kts
2026-05-04 01:05 19.00991 -98.97434 14122 ft 253 kts
2026-05-04 01:05 19.02744 -98.97313 13793 ft 252 kts
2026-05-04 01:06 19.04469 -98.97191 13695 ft 251 kts
2026-05-04 01:06 19.06220 -98.97066 13722 ft 253 kts
2026-05-04 01:06 19.07977 -98.96939 13693 ft 253 kts
2026-05-04 01:06 19.09636 -98.96817 13698 ft 253 kts
2026-05-04 01:07 19.11393 -98.96688 13725 ft 253 kts
2026-05-04 01:07 19.13149 -98.96557 13751 ft 253 kts
2026-05-04 01:07 19.14907 -98.96424 13739 ft 250 kts
2026-05-04 01:07 19.16617 -98.96544 13279 ft 246 kts 343°
2026-05-04 01:08 19.18069 -98.97384 13046 ft 231 kts 317°
2026-05-04 01:08 19.19028 -98.98662 12930 ft 214 kts 300°
2026-05-04 01:08 19.19788 -98.99965 12795 ft 202 kts 300°
2026-05-04 01:08 19.20517 -99.01211 12547 ft 198 kts 300°
2026-05-04 01:09 19.21237 -99.02442 12389 ft 195 kts 300°
2026-05-04 01:09 19.21952 -99.03670 12376 ft 197 kts 300°
2026-05-04 01:09 19.22672 -99.04904 12388 ft 198 kts 300°
2026-05-04 01:09 19.23393 -99.06142 12402 ft 197 kts 300°
2026-05-04 01:10 19.24102 -99.07363 12405 ft 197 kts 301°
2026-05-04 01:10 19.24915 -99.08540 12305 ft 199 kts 306°
2026-05-04 01:10 19.25753 -99.09699 12010 ft 197 kts 306°
2026-05-04 01:10 19.26591 -99.10857 11668 ft 199 kts 306°
2026-05-04 01:11 19.27440 -99.12033 11292 ft 202 kts 306°
2026-05-04 01:11 19.28297 -99.13225 10917 ft 206 kts 305°
2026-05-04 01:11 19.29174 -99.14439 10597 ft 207 kts 306°
2026-05-04 01:11 19.30021 -99.15608 10547 ft 196 kts 305°
2026-05-04 01:12 19.30844 -99.16745 10498 ft 193 kts 306°
2026-05-04 01:12 19.31670 -99.17866 10435 ft 194 kts 310°
2026-05-04 01:12 19.32727 -99.18770 10113 ft 201 kts 329°
2026-05-04 01:12 19.34053 -99.19224 9860 ft 199 kts 352°
2026-05-04 01:13 19.35406 -99.19149 9741 ft 198 kts 12°
2026-05-04 01:13 19.36670 -99.18578 9588 ft 198 kts 34°
2026-05-04 01:13 19.37647 -99.17572 9433 ft 197 kts 57°
2026-05-04 01:13 19.38353 -99.16335 9286 ft 198 kts 59°
2026-05-04 01:14 19.39056 -99.15080 9113 ft 198 kts 60°
2026-05-04 01:14 19.39760 -99.13827 8900 ft 197 kts 59°
2026-05-04 01:14 19.40455 -99.12589 8619 ft 194 kts 58°
2026-05-04 01:14 19.41138 -99.11372 8200 ft 188 kts 59°
2026-05-04 01:15 19.41786 -99.10217 7849 ft 177 kts 58°
2026-05-04 01:15 19.42406 -99.09109 7562 ft 173 kts 57°
2026-05-04 01:15 19.43011 -99.08028 7310 ft 169 kts 57°
2026-05-04 01:15 19.43595 -99.06956 7998 ft 161 kts 59°
2026-05-04 01:16 19.44174 -99.05893 8658 ft 180 kts 61°
2026-05-04 01:16 19.44833 -99.04723 9054 ft 189 kts 59°
2026-05-04 01:16 19.45560 -99.03451 9035 ft 213 kts 58°
2026-05-04 01:16 19.46333 -99.02100 9122 ft 223 kts 59°
2026-05-04 01:17 19.47166 -99.00665 9210 ft 234 kts 58°
2026-05-04 01:17 19.48034 -98.99174 9293 ft 242 kts 58°
2026-05-04 01:17 19.48937 -98.97638 9354 ft 249 kts 58°
2026-05-04 01:17 19.49850 -98.96053 9408 ft 256 kts 65°
2026-05-04 01:18 19.50233 -98.94188 9498 ft 266 kts 93°
2026-05-04 01:18 19.50002 -98.92887 9733 ft 267 kts 112°
2026-05-04 01:18 19.48988 -98.91267 10148 ft 265 kts 139°
2026-05-04 01:18 19.47416 -98.90335 10507 ft 264 kts 167°
2026-05-04 01:19 19.45594 -98.90094 10943 ft 264 kts 174°
2026-05-04 01:19 19.43811 -98.89604 11339 ft 268 kts 158°
2026-05-04 01:19 19.42116 -98.88748 11734 ft 270 kts 155°
2026-05-04 01:19 19.40421 -98.87875 12152 ft 272 kts 155°
2026-05-04 01:20 19.38712 -98.86991 12371 ft 274 kts 155°
2026-05-04 01:20 19.36955 -98.86240 12379 ft 272 kts 168°
2026-05-04 01:20 19.35091 -98.86072 12379 ft 269 kts 186°
2026-05-04 01:20 19.33279 -98.86522 12374 ft 268 kts 204°
2026-05-04 01:21 19.31736 -98.87605 12369 ft 268 kts 226°
2026-05-04 01:21 19.30728 -98.89256 12382 ft 268 kts 248°
2026-05-04 01:21 19.30059 -98.91105 12389 ft 270 kts 249°
2026-05-04 01:21 19.29400 -98.92970 12402 ft 270 kts 249°
2026-05-04 01:22 19.28749 -98.94824 12398 ft 265 kts 249°
2026-05-04 01:22 19.28127 -98.96592 12394 ft 247 kts 249°
2026-05-04 01:22 19.27530 -98.98284 12411 ft 244 kts 249°
2026-05-04 01:22 19.26944 -98.99943 12413 ft 243 kts 249°
2026-05-04 01:23 19.26350 -99.01623 12415 ft 244 kts 249°
2026-05-04 01:23 19.25755 -99.03299 12406 ft 243 kts 249°
2026-05-04 01:23 19.25180 -99.04986 12399 ft 244 kts 255°
2026-05-04 01:23 19.24975 -99.06765 12403 ft 244 kts 272°
2026-05-04 01:24 19.25276 -99.08529 12399 ft 245 kts 289°
2026-05-04 01:24 19.26048 -99.10136 12300 ft 247 kts 304°
2026-05-04 01:24 19.27092 -99.11598 11885 ft 248 kts 307°
2026-05-04 01:24 19.28125 -99.13019 11511 ft 240 kts 307°
2026-05-04 01:25 19.29128 -99.14398 11183 ft 231 kts 306°
2026-05-04 01:25 19.30093 -99.15728 10891 ft 224 kts 306°
2026-05-04 01:25 19.31016 -99.17002 10605 ft 217 kts 306°
2026-05-04 01:25 19.31972 -99.18246 10328 ft 213 kts 314°
2026-05-04 01:26 19.33196 -99.19079 10090 ft 208 kts 337°
2026-05-04 01:26 19.34585 -99.19351 9840 ft 204 kts
2026-05-04 01:26 19.35944 -99.19058 9694 ft 199 kts 22°
2026-05-04 01:26 19.37098 -99.18274 9517 ft 197 kts 44°
2026-05-04 01:27 19.37905 -99.17129 9402 ft 190 kts 60°
2026-05-04 01:27 19.38582 -99.15923 9253 ft 190 kts 59°
2026-05-04 01:27 19.39255 -99.14724 9098 ft 190 kts 59°
2026-05-04 01:27 19.39928 -99.13526 8865 ft 188 kts 59°
2026-05-04 01:28 19.40595 -99.12340 8563 ft 186 kts 59°
2026-05-04 01:28 19.41264 -99.11188 8164 ft 180 kts 57°
2026-05-04 01:28 19.41896 -99.10065 7850 ft 176 kts 58°
2026-05-04 01:28 19.42499 -99.08950 7513 ft 173 kts 58°
2026-05-04 01:29 19.43100 -99.07869 7306 ft 168 kts 58°
2026-05-04 01:29 19.43589 -99.06994 7302 ft 97 kts 58°
2026-05-04 01:29 19.43800 -99.06621 7303 ft 18 kts 59°
2026-05-04 01:29 19.43882 -99.06527 7303 ft 17 kts 36°
2026-05-04 01:30 19.43983 -99.06463 7303 ft 17 kts 28°
2026-05-04 01:30 19.44089 -99.06405 7303 ft 17 kts 30°
2026-05-04 01:30 19.44162 -99.06363 7303 ft 0 kts 27°
2026-05-04 01:30 19.44165 -99.06362 7303 ft 0 kts 27°
2026-05-04 01:31 19.44165 -99.06361 7303 ft 0 kts 26°
2026-05-04 01:31 19.44173 -99.06358 7303 ft 5 kts 25°
2026-05-04 01:31 19.44230 -99.06330 7303 ft 12 kts 24°
2026-05-04 01:31 19.44310 -99.06293 7302 ft 14 kts 22°
2026-05-04 01:32 19.44391 -99.06308 7303 ft 12 kts 314°
2026-05-04 01:32 19.44381 -99.06392 7303 ft 13 kts 240°
2026-05-04 01:32 19.44334 -99.06480 7303 ft 15 kts 239°
2026-05-04 01:32 19.44278 -99.06580 7303 ft 19 kts 239°
2026-05-04 01:33 19.44154 -99.06801 7303 ft 55 kts 239°
2026-05-04 01:33 19.43949 -99.07164 7303 ft 57 kts 239°
2026-05-04 01:33 19.43751 -99.07517 7303 ft 54 kts 239°
2026-05-04 01:33 19.43565 -99.07848 7303 ft 44 kts 239°
2026-05-04 01:34 19.43464 -99.08026 7303 ft 26 kts 239°
2026-05-04 01:34 19.43385 -99.08167 7303 ft 10 kts 239°
2026-05-04 01:34 19.43394 -99.08234 7303 ft 11 kts 320°
2026-05-04 01:34 19.43421 -99.08253 7303 ft 2 kts 329°
2026-05-04 01:35 19.43429 -99.08258 7303 ft 2 kts 328°
2026-05-04 01:35 19.43432 -99.08259 7303 ft 0 kts 328°